Location: Tamazert
(32.6352°N, 5.2072°W)
Time: 03:38:28
(UTC+00:00)

Vanguard 1 Rocket - Pass Details

Date: 09 October 2022
Orbit: 650 x 4225 km, 34.3° (Epoch: 05 December)

Event Time Altitude Azimuth Distance (km) Brightness Sun altitude
Enters shadow 00:56:38 - 287° (WNW) 6,035 11.6 -61.3°
Rises 00:56:40 0° 287° (WNW) 6,026 - -61.3°
Reaches altitude 10° 01:01:50 10° 280° (W) 4,379 - -60.8°
Maximum altitude 01:10:48 32° 222° (SW) 2,000 - -59.8°
Drops below altitude 10° 01:16:14 10° 160° (SSE) 2,596 - -59.2°
Sets 01:18:31 0° 149° (SSE) 3,309 - -58.9°
